Location: Carabito
(9.8355°N, 67.9249°W)
Time: 22:22:23
(UTC+00:00)

Cosmos 2278 Rocket - Pass Details

Date: 23 May 2024
Orbit: 840 x 845 km, 71.0° (Epoch: 25 June)

Event Time Altitude Azimuth Distance (km) Brightness Sun altitude
Rises 01:03:21 0° 333° (NNW) 3,389 6.2 -31.1°
Reaches altitude 10° 01:05:53 10° 327° (NNW) 2,454 5.3 -31.6°
Enters shadow 01:11:06 45° 259° (W) 1,134 3.0 -32.7°
